Change the Weather History Date:

Tuesday, October 16, 2012

  Actual Average Record
Temperature  
Mean Temperature 24 °F 33 °F  
Max Temperature 30 °F 41 °F 57 °F (1969)
Min Temperature 17 °F 26 °F 7 °F (1997)
Degree Days  
Heating Degree Days 41 32  
Month to date heating degree days 384 448  
Since 1 July heating degree days 1707 1583  
Cooling Degree Days 0    
Month to date cooling degree days 0  
Year to date cooling degree days 0  
Moisture  
Dew Point 13 °F    
Average Humidity 0    
Maximum Humidity 0    
Minimum Humidity 0    
Precipitation  
Precipitation T in 0.06 in 0.59 in (2001)
Month to date precipitation 1.85 1.24  
Year to date precipitation 21.90 16.03  
Snow  
Snow T in 0.10 in 2.00 in (1973)
Month to date snowfall 11.1 0.8  
Since 1 July snowfall 11.1 0.9  
Since 1 September snowfall 11.1 0.9  
Snow Depth 4.00 in    
Sea Level Pressure  
Sea Level Pressure 29.61 in    
Wind  
Wind Speed 11 mph (NW)    
Max Wind Speed 21 mph    
Max Gust Speed 26 mph    
Visibility 10 miles    
Events      
T = Trace of Precipitation, MM = Missing Value Source: NWS Daily Summary

Daily Weather History Graph

Daily Weather History Graph

Search for Another Location

Airport or City:

Trip Planner

Search our weather history database for the weather conditions in past years. The results will help you decide how hot, cold, wet, or windy it might be!

Date:

Astronomy

Oct. 16, 2012 Rise Set
Actual Time 9:07 AM AKDT 7:15 PM AKDT
Civil Twilight 8:26 AM AKDT 7:56 PM AKDT
Nautical Twilight 7:40 AM AKDT 8:42 PM AKDT
Astronomical Twilight 6:53 AM AKDT 9:29 PM AKDT
Moon 11:17 AM AKDT (10/16) 7:31 PM AKDT (10/16)
Length of Visible Light 11h 30m
Length of Day
10h 08m
Waxing Crescent, 3% of the Moon is Illuminated
Oct 16
Waxing Crescent
Oct 21
First Quarter
Oct 29
Full
Nov 6
Last Quarter
Nov 13
New

Hourly Weather History & Observations

Time (AKDT) Temp. Windchill Dew Point Humidity Pressure Visibility Wind Dir Wind Speed Gust Speed Precip Events Conditions
12:54 AM 24.1 °F 13.1 °F 12.9 °F 62% 29.49 in 10.0 mi WNW 11.5 mph - N/A   Scattered Clouds
1:54 AM 21.9 °F 11.7 °F 12.9 °F 68% 29.50 in 10.0 mi NW 9.2 mph - N/A   Partly Cloudy
2:54 AM 21.0 °F 10.6 °F 12.9 °F 71% 29.51 in 10.0 mi NW 9.2 mph - N/A   Partly Cloudy
3:54 AM 19.4 °F 9.5 °F 12.2 °F 74% 29.51 in 10.0 mi NW 8.1 mph - N/A   Mostly Cloudy
4:54 AM 19.9 °F 7.9 °F 12.0 °F 71% 29.53 in 10.0 mi NW 11.5 mph - N/A   Clear
5:54 AM 21.0 °F 10.6 °F 12.9 °F 71% 29.53 in 10.0 mi NW 9.2 mph - N/A   Overcast
6:54 AM 21.9 °F 11.0 °F 12.0 °F 66% 29.54 in 10.0 mi NW 10.4 mph - N/A   Mostly Cloudy
7:54 AM 18.0 °F 9.8 °F 12.0 °F 78% 29.56 in 10.0 mi NNW 5.8 mph - N/A   Mostly Cloudy
8:54 AM 19.9 °F 9.3 °F 12.9 °F 74% 29.56 in 10.0 mi NW 9.2 mph - N/A   Overcast
9:54 AM 21.0 °F 11.4 °F 12.0 °F 68% 29.58 in 10.0 mi NW 8.1 mph - N/A   Overcast
10:54 AM 24.1 °F 13.7 °F 12.9 °F 62% 29.59 in 10.0 mi NW 10.4 mph - N/A   Overcast
11:54 AM 26.1 °F 15.0 °F 12.9 °F 58% 29.61 in 10.0 mi NW 12.7 mph - N/A   Scattered Clouds
12:54 PM 27.0 °F 18.0 °F 12.9 °F 56% 29.62 in 10.0 mi NW 9.2 mph - N/A   Scattered Clouds
1:54 PM 28.9 °F 18.2 °F 14.0 °F 54% 29.62 in 10.0 mi NW 13.8 mph 19.6 mph N/A   Scattered Clouds
2:54 PM 30.0 °F 18.3 °F 15.1 °F 54% 29.62 in 10.0 mi NNW 17.3 mph 26.5 mph N/A   Scattered Clouds
3:54 PM 30.0 °F 18.3 °F 15.1 °F 54% 29.63 in 10.0 mi NNW 17.3 mph 25.3 mph 0.00 in   Overcast
4:54 PM 30.0 °F 19.1 °F 15.1 °F 54% 29.64 in 10.0 mi North 15.0 mph - N/A   Mostly Cloudy
5:54 PM 28.9 °F 17.3 °F 15.1 °F 56% 29.66 in 10.0 mi NNW 16.1 mph - N/A   Mostly Cloudy
6:54 PM 28.0 °F 17.0 °F 14.0 °F 56% 29.68 in 10.0 mi NNW 13.8 mph 23.0 mph N/A   Mostly Cloudy
7:54 PM 27.0 °F 15.2 °F 14.0 °F 58% 29.69 in 10.0 mi NNW 15.0 mph 21.9 mph N/A   Mostly Cloudy
8:54 PM 24.1 °F 15.2 °F 14.0 °F 65% 29.72 in 10.0 mi NNW 8.1 mph - N/A   Scattered Clouds
9:54 PM 19.9 °F 13.4 °F 12.0 °F 71% 29.74 in 10.0 mi NW 4.6 mph - N/A   Scattered Clouds
10:54 PM 19.9 °F 12.1 °F 12.0 °F 71% 29.76 in 10.0 mi NW 5.8 mph - N/A   Partly Cloudy
11:54 PM 19.0 °F 9.0 °F 12.0 °F 74% 29.78 in 10.0 mi WNW 8.1 mph - N/A   Clear